STARLINK-36087

Last updated on Mon Dec 15 2025 00:02:12 GMT+0000 (Coordinated Universal Time)

1 66854U 25281G 25348.25003472 -.01207752 00000+0 -49911-2 0 9993 2 66854 43.0006 113.0009 0001664 267.3094 268.8880 15.87299851 1642
UTC large
Height (km)
Speed (km/s)
/
Latitude / Longitude
Inclination (degrees)
Orbital Period (minutes)
Azimuth
Elevation
Range (km)
Doppler Factor

Next 0 passes for location: London (51.5072 / 0.1276)

Sorry there are no passes over London.